| time (UTC) | temp F | wind direction | speed MPH | gust MPH | rain 1hr in | rain 24hr in | rain mn in | humidity % | barometer mb |
| 20260902220040 | 87 | 220 | 4.0 | 10.0 | 0.00 | 0.50 | 0.50 | 69 | 1006.8 |
| 20260902215537 | 89 | 199 | 5.0 | 5.0 | 0.00 | 0.50 | 0.50 | 65 | 1006.8 |
| 20260902215032 | 87 | 22 | 0.0 | 5.0 | 0.00 | 0.50 | 0.50 | 66 | 1006.8 |
| 20260902214531 | 87 | 211 | 2.0 | 7.0 | 0.00 | 0.50 | 0.50 | 67 | 1006.8 |
| 20260902214031 | 88 | 221 | 2.0 | 4.0 | 0.00 | 0.50 | 0.50 | 65 | 1006.9 |
| 20260902213526 | 87 | 202 | 5.0 | 10.0 | 0.00 | 0.50 | 0.50 | 64 | 1007.0 |
| 20260902213025 | 89 | 197 | 5.0 | 7.0 | 0.00 | 0.50 | 0.50 | 63 | 1007.1 |
| 20260902212521 | 89 | 209 | 2.0 | 4.0 | 0.00 | 0.50 | 0.50 | 63 | 1007.1 |
| 20260902212018 | 89 | 183 | 0.0 | 6.0 | 0.00 | 0.50 | 0.50 | 62 | 1007.2 |
| 20260902211514 | 89 | 206 | 2.0 | 5.0 | 0.00 | 0.50 | 0.50 | 65 | 1007.1 |
| 20260902211009 | 89 | 195 | 4.0 | 4.0 | 0.00 | 0.50 | 0.50 | 65 | 1007.2 |
| 20260902210508 | 90 | 219 | 0.0 | 5.0 | 0.00 | 0.50 | 0.50 | 63 | 1007.2 |
| 20260902210007 | 89 | 170 | 1.0 | 2.0 | 0.00 | 0.50 | 0.50 | 64 | 1007.2 |
| 20260902205501 | 87 | 208 | 6.0 | 9.0 | 0.00 | 0.50 | 0.50 | 67 | 1007.1 |
| 20260902204957 | 87 | 188 | 5.0 | 10.0 | 0.00 | 0.50 | 0.50 | 67 | 1007.4 |
| 20260902204456 | 90 | 188 | 2.0 | 4.0 | 0.00 | 0.50 | 0.50 | 60 | 1007.4 |
| 20260902203952 | 91 | 124 | 1.0 | 3.0 | 0.00 | 0.50 | 0.50 | 62 | 1007.0 |
| 20260902203448 | 89 | 227 | 3.0 | 6.0 | 0.00 | 0.50 | 0.50 | 64 | 1007.2 |
| 20260902202946 | 89 | 199 | 1.0 | 3.0 | 0.00 | 0.50 | 0.50 | 64 | 1006.9 |
| 20260902202442 | 89 | 191 | 4.0 | 5.0 | 0.00 | 0.50 | 0.50 | 64 | 1007.3 |
| 20260902201939 | 90 | 159 | 0.0 | 4.0 | 0.00 | 0.50 | 0.50 | 61 | 1007.2 |
| 20260902201434 | 90 | 171 | 1.0 | 3.0 | 0.00 | 0.50 | 0.50 | 61 | 1007.2 |
| 20260902200929 | 88 | 167 | 2.0 | 5.0 | 0.00 | 0.50 | 0.50 | 66 | 1007.1 |
| 20260902200424 | 88 | 191 | 3.0 | 5.0 | 0.00 | 0.50 | 0.50 | 64 | 1007.2 |
| 20260902195919 | 90 | 202 | 2.0 | 3.0 | 0.00 | 0.50 | 0.50 | 60 | 1007.2 |
| 20260902195414 | 90 | 197 | 2.0 | 4.0 | 0.00 | 0.50 | 0.50 | 60 | 1007.5 |
| 20260902194909 | 89 | 156 | 1.0 | 4.0 | 0.00 | 0.50 | 0.50 | 63 | 1007.3 |
| 20260902194409 | 89 | 210 | 3.0 | 4.0 | 0.00 | 0.50 | 0.50 | 64 | 1007.4 |
| 20260902193909 | 88 | 205 | 1.0 | 4.0 | 0.00 | 0.50 | 0.50 | 66 | 1007.3 |
| 20260902193405 | 87 | 105 | 2.0 | 4.0 | 0.00 | 0.50 | 0.50 | 67 | 1007.7 |
| 20260902192903 | 87 | 211 | 6.0 | 6.0 | 0.00 | 0.50 | 0.50 | 68 | 1007.6 |
| 20260902192403 | 87 | 198 | 3.0 | 4.0 | 0.00 | 0.50 | 0.50 | 64 | 1007.5 |
| 20260902191856 | 88 | 220 | 4.0 | 4.0 | 0.00 | 0.50 | 0.50 | 66 | 1007.9 |
| 20260902191353 | 86 | 195 | 4.0 | 6.0 | 0.00 | 0.50 | 0.50 | 68 | 1007.9 |
| 20260902190847 | 87 | 180 | 3.0 | 5.0 | 0.00 | 0.50 | 0.50 | 66 | 1008.1 |
| 20260902190347 | 86 | 168 | 2.0 | 4.0 | 0.00 | 0.50 | 0.50 | 67 | 1008.1 |
| 20260902185837 | 86 | 197 | 3.0 | 4.0 | 0.00 | 0.50 | 0.50 | 66 | 1007.9 |
| 20260902185332 | 85 | 180 | 0.0 | 5.0 | 0.00 | 0.50 | 0.50 | 67 | 1007.9 |
| 20260902184828 | 86 | 214 | 2.0 | 5.0 | 0.00 | 0.50 | 0.50 | 65 | 1008.0 |
| 20260902184323 | 87 | 205 | 2.0 | 4.0 | 0.00 | 0.50 | 0.50 | 67 | 1008.3 |
| 20260902183819 | 87 | 136 | 1.0 | 4.0 | 0.00 | 0.50 | 0.50 | 66 | 1008.1 |
| 20260902183314 | 87 | 226 | 2.0 | 8.0 | 0.00 | 0.50 | 0.50 | 68 | 1008.2 |
| 20260902182810 | 86 | 25 | 0.0 | 4.0 | 0.00 | 0.50 | 0.50 | 66 | 1008.2 |
| 20260902182307 | 86 | 19 | 1.0 | 8.0 | 0.00 | 0.50 | 0.50 | 68 | 1008.3 |
| 20260902181803 | 87 | 160 | 2.0 | 6.0 | 0.00 | 0.50 | 0.50 | 67 | 1008.3 |
| 20260902181258 | 86 | 240 | 2.0 | 4.0 | 0.00 | 0.50 | 0.50 | 66 | 1008.6 |
| 20260902180752 | 86 | 221 | 1.0 | 3.0 | 0.00 | 0.50 | 0.50 | 68 | 1008.3 |
| 20260902180248 | 85 | 229 | 3.0 | 5.0 | 0.00 | 0.50 | 0.50 | 66 | 1008.6 |
| 20260902175743 | 85 | 268 | 1.0 | 8.0 | 0.00 | 0.50 | 0.50 | 67 | 1008.6 |
| 20260902175239 | 84 | 188 | 2.0 | 5.0 | 0.00 | 0.50 | 0.50 | 70 | 1008.7 |
| 20260902174734 | 82 | 221 | 5.0 | 10.0 | 0.00 | 0.50 | 0.50 | 73 | 1008.5 |
| 20260902174230 | 82 | 217 | 4.0 | 8.0 | 0.00 | 0.50 | 0.50 | 74 | 1008.7 |
| 20260902173725 | 84 | 243 | 3.0 | 5.0 | 0.00 | 0.50 | 0.50 | 69 | 1008.7 |
| 20260902173219 | 83 | 219 | 5.0 | 11.0 | 0.00 | 0.50 | 0.50 | 71 | 1008.8 |
| 20260902172714 | 82 | 301 | 1.0 | 7.0 | 0.00 | 0.50 | 0.50 | 74 | 1009.0 |
| 20260902172213 | 82 | 216 | 3.0 | 7.0 | 0.00 | 0.50 | 0.50 | 73 | 1008.7 |
| 20260902171709 | 82 | 208 | 2.0 | 7.0 | 0.00 | 0.50 | 0.50 | 74 | 1008.9 |
| 20260902171204 | 81 | 197 | 3.0 | 9.0 | 0.00 | 0.50 | 0.50 | 75 | 1008.8 |
| 20260902170701 | 81 | 237 | 5.0 | 8.0 | 0.00 | 0.50 | 0.50 | 73 | 1008.6 |
| 20260902170155 | 81 | 230 | 4.0 | 5.0 | 0.00 | 0.50 | 0.50 | 73 | 1008.8 |
| 20260902165650 | 80 | 204 | 4.0 | 8.0 | 0.00 | 0.50 | 0.50 | 77 | 1008.3 |
| 20260902165144 | 80 | 206 | 4.0 | 6.0 | 0.00 | 0.50 | 0.50 | 76 | 1008.7 |
| 20260902164640 | 79 | 179 | 4.0 | 9.0 | 0.00 | 0.50 | 0.50 | 77 | 1008.5 |
| 20260902164139 | 79 | 206 | 4.0 | 5.0 | 0.00 | 0.50 | 0.50 | 78 | 1008.6 |
| 20260902163634 | 78 | 244 | 4.0 | 7.0 | 0.00 | 0.50 | 0.50 | 79 | 1008.6 |
| 20260902163134 | 78 | 222 | 7.0 | 10.0 | 0.00 | 0.50 | 0.50 | 79 | 1008.7 |
| 20260902162632 | 78 | 201 | 4.0 | 7.0 | 0.00 | 0.50 | 0.50 | 80 | 1008.6 |
| 20260902162127 | 77 | 203 | 4.0 | 10.0 | 0.00 | 0.50 | 0.50 | 81 | 1008.8 |
| 20260902161622 | 77 | 205 | 6.0 | 11.0 | 0.00 | 0.50 | 0.50 | 81 | 1008.8 |
| 20260902161118 | 76 | 182 | 5.0 | 13.0 | 0.00 | 0.50 | 0.50 | 81 | 1008.7 |
| 20260902160614 | 76 | 208 | 4.0 | 11.0 | 0.00 | 0.50 | 0.50 | 81 | 1009.0 |
| 20260902160108 | 76 | 214 | 6.0 | 15.0 | 0.00 | 0.50 | 0.50 | 82 | 1009.0 |
| 20260902155607 | 76 | 180 | 4.0 | 9.0 | 0.00 | 0.50 | 0.50 | 83 | 1008.8 |
| 20260902155106 | 76 | 190 | 3.0 | 11.0 | 0.00 | 0.50 | 0.50 | 83 | 1008.8 |
| 20260902154601 | 75 | 202 | 4.0 | 7.0 | 0.00 | 0.50 | 0.50 | 84 | 1008.8 |
| 20260902154056 | 75 | 196 | 5.0 | 8.0 | 0.00 | 0.50 | 0.50 | 85 | 1008.8 |
| 20260902153554 | 74 | 201 | 6.0 | 12.0 | 0.00 | 0.50 | 0.50 | 86 | 1008.9 |
| 20260902153050 | 74 | 201 | 6.0 | 11.0 | 0.00 | 0.50 | 0.50 | 87 | 1008.5 |
| 20260902152541 | 74 | 189 | 5.0 | 10.0 | 0.00 | 0.50 | 0.50 | 88 | 1008.7 |
| 20260902152036 | 73 | 202 | 8.0 | 15.0 | 0.00 | 0.50 | 0.50 | 89 | 1008.9 |
| 20260902151531 | 72 | 238 | 4.0 | 11.0 | 0.00 | 0.50 | 0.50 | 89 | 1008.6 |
| 20260902151031 | 72 | 236 | 4.0 | 8.0 | 0.00 | 0.50 | 0.50 | 90 | 1008.6 |
| 20260902150527 | 72 | 242 | 2.0 | 6.0 | 0.00 | 0.50 | 0.50 | 91 | 1008.3 |
| 20260902150022 | 71 | 250 | 2.0 | 8.0 | 0.00 | 0.50 | 0.50 | 91 | 1008.7 |
| 20260902145517 | 71 | 303 | 1.0 | 4.0 | 0.00 | 0.50 | 0.50 | 92 | 1008.8 |
| 20260902145016 | 71 | 263 | 2.0 | 4.0 | 0.00 | 0.50 | 0.50 | 93 | 1008.5 |
| 20260902144513 | 70 | 218 | 3.0 | 7.0 | 0.00 | 0.50 | 0.50 | 94 | 1008.5 |
| 20260902144013 | 70 | 241 | 5.0 | 9.0 | 0.00 | 0.50 | 0.50 | 93 | 1008.8 |
| 20260902143508 | 70 | 284 | 1.0 | 3.0 | 0.00 | 0.50 | 0.50 | 95 | 1008.6 |
| 20260902143003 | 69 | 197 | 0.0 | 4.0 | 0.00 | 0.50 | 0.50 | 96 | 1008.6 |
| 20260902142459 | 68 | 285 | 1.0 | 3.0 | 0.00 | 0.50 | 0.50 | 97 | 1008.6 |
| 20260902141954 | 68 | 125 | 2.0 | 4.0 | 0.00 | 0.50 | 0.50 | 98 | 1008.9 |
| 20260902141449 | 68 | 218 | 3.0 | 7.0 | 0.00 | 0.50 | 0.50 | 99 | 1008.6 |
| 20260902140949 | 68 | 236 | 6.0 | 7.0 | 0.00 | 0.50 | 0.50 | 99 | 1009.0 |
| 20260902140445 | 67 | 209 | 3.0 | 5.0 | 0.00 | 0.50 | 0.50 | 99 | 1009.1 |
| 20260902135944 | 66 | 220 | 4.0 | 11.0 | 0.00 | 0.50 | 0.50 | 99 | 1009.1 |
| 20260902135440 | 66 | 176 | 3.0 | 7.0 | 0.00 | 0.50 | 0.50 | 99 | 1009.2 |
| 20260902134939 | 66 | 224 | 6.0 | 8.0 | 0.00 | 0.50 | 0.50 | 99 | 1009.3 |
| 20260902134435 | 66 | 206 | 3.0 | 4.0 | 0.00 | 0.50 | 0.50 | 99 | 1009.3 |
| 20260902133931 | 66 | 148 | 2.0 | 4.0 | 0.00 | 0.50 | 0.50 | 99 | 1009.2 |
| 20260902133430 | 65 | 170 | 4.0 | 7.0 | 0.00 | 0.50 | 0.50 | 99 | 1009.2 |
| 20260902132925 | 65 | 206 | 3.0 | 5.0 | 0.00 | 0.50 | 0.50 | 99 | 1009.4 |
| 20260902132420 | 65 | 126 | 3.0 | 4.0 | 0.00 | 0.50 | 0.50 | 99 | 1009.5 |
| 20260902131915 | 65 | 171 | 1.0 | 4.0 | 0.00 | 0.50 | 0.50 | 99 | 1009.4 |
| 20260902131413 | 65 | 174 | 2.0 | 5.0 | 0.00 | 0.50 | 0.50 | 99 | 1009.6 |
| 20260902130911 | 64 | 233 | 3.0 | 9.0 | 0.00 | 0.50 | 0.50 | 99 | 1009.7 |
| 20260902130408 | 64 | 213 | 4.0 | 6.0 | 0.00 | 0.50 | 0.50 | 99 | 1009.6 |
| 20260902125902 | 64 | 148 | 1.0 | 5.0 | 0.00 | 0.50 | 0.50 | 99 | 1009.6 |
| 20260902125358 | 64 | 210 | 3.0 | 5.0 | 0.00 | 0.50 | 0.50 | 99 | 1009.8 |
| 20260902124854 | 64 | 198 | 2.0 | 5.0 | 0.00 | 0.50 | 0.50 | 99 | 1009.7 |
| 20260902124350 | 64 | 217 | 4.0 | 7.0 | 0.00 | 0.50 | 0.50 | 99 | 1009.7 |
| 20260902123844 | 63 | 206 | 3.0 | 4.0 | 0.00 | 0.50 | 0.50 | 99 | 1009.6 |
| 20260902123341 | 63 | 120 | 1.0 | 3.0 | 0.00 | 0.50 | 0.50 | 99 | 1009.1 |
| 20260902122839 | 63 | 168 | 2.0 | 3.0 | 0.00 | 0.50 | 0.50 | 99 | 1009.2 |
| 20260902122331 | 63 | 95 | 0.0 | 3.0 | 0.00 | 0.50 | 0.50 | 99 | 1008.8 |
| 20260902121830 | 63 | 190 | 1.0 | 5.0 | 0.00 | 0.50 | 0.50 | 99 | 1008.1 |
| 20260902121325 | 63 | 62 | 2.0 | 3.0 | 0.00 | 0.50 | 0.50 | 99 | 1008.3 |
| 20260902120820 | 63 | 185 | 1.0 | 4.0 | 0.00 | 0.50 | 0.50 | 99 | 1008.5 |
| 20260902120317 | 63 | 54 | 3.0 | 4.0 | 0.00 | 0.50 | 0.50 | 99 | 1008.6 |
| 20260902115816 | 63 | 28 | 1.0 | 4.0 | 0.00 | 0.50 | 0.50 | 99 | 1008.9 |
| 20260902115313 | 63 | 147 | 0.0 | 2.0 | 0.00 | 0.50 | 0.50 | 99 | 1008.7 |
| 20260902114809 | 63 | 86 | 2.0 | 3.0 | 0.00 | 0.50 | 0.50 | 99 | 1008.5 |
| 20260902114305 | 63 | 138 | 0.0 | 4.0 | 0.00 | 0.50 | 0.50 | 99 | 1008.2 |
| 20260902113800 | 63 | 42 | 0.0 | 3.0 | 0.00 | 0.50 | 0.50 | 99 | 1008.3 |
| 20260902113255 | 64 | 149 | 2.0 | 5.0 | 0.00 | 0.50 | 0.50 | 99 | 1008.5 |
| 20260902112754 | 64 | 81 | 2.0 | 3.0 | 0.00 | 0.50 | 0.50 | 99 | 1008.7 |
| 20260902112251 | 64 | 120 | 0.0 | 3.0 | 0.00 | 0.50 | 0.50 | 99 | 1009.0 |
| 20260902111746 | 64 | 57 | 0.0 | 3.0 | 0.00 | 0.50 | 0.50 | 99 | 1009.4 |
| 20260902111243 | 64 | 217 | 3.0 | 5.0 | 0.00 | 0.50 | 0.50 | 99 | 1009.9 |
| 20260902110738 | 64 | 226 | 3.0 | 8.0 | 0.00 | 0.50 | 0.50 | 99 | 1009.9 |
| 20260902110234 | 64 | 200 | 4.0 | 6.0 | 0.02 | 0.50 | 0.50 | 99 | 1010.3 |
| 20260902105733 | 64 | 210 | 3.0 | 5.0 | 0.02 | 0.50 | 0.50 | 99 | 1009.8 |
| 20260902105229 | 64 | 196 | 3.0 | 3.0 | 0.00 | 0.50 | 0.50 | 99 | 1010.6 |
| 20260902104724 | 64 | 38 | 2.0 | 3.0 | 0.02 | 0.50 | 0.50 | 99 | 1010.8 |
| 20260902104220 | 64 | 32 | 1.0 | 3.0 | 0.14 | 0.50 | 0.50 | 99 | 1011.0 |
| 20260902103719 | 64 | 82 | 2.0 | 5.0 | 0.09 | 0.49 | 0.49 | 99 | 1010.8 |
| 20260902103214 | 64 | 223 | 3.0 | 5.0 | 0.00 | 0.47 | 0.47 | 99 | 1010.9 |
| 20260902102710 | 64 | 223 | 6.0 | 7.0 | 0.00 | 0.47 | 0.47 | 99 | 1010.5 |
| 20260902102207 | 64 | 77 | 1.0 | 3.0 | 0.00 | 0.47 | 0.47 | 99 | 1009.6 |
| 20260902101702 | 64 | 191 | 4.0 | 7.0 | 0.00 | 0.47 | 0.47 | 99 | 1009.8 |
| 20260902101202 | 63 | 213 | 4.0 | 5.0 | 0.00 | 0.47 | 0.47 | 99 | 1009.7 |
| 20260902100655 | 63 | 218 | 1.0 | 6.0 | 0.00 | 0.47 | 0.47 | 99 | 1009.6 |
| 20260902100151 | 63 | 196 | 4.0 | 7.0 | 0.00 | 0.47 | 0.47 | 99 | 1009.8 |
| 20260902095649 | 62 | 213 | 4.0 | 7.0 | 0.00 | 0.47 | 0.47 | 99 | 1009.1 |
| 20260902095144 | 63 | 125 | 0.0 | 4.0 | 0.00 | 0.47 | 0.47 | 99 | 1008.2 |
| 20260902094639 | 63 | 187 | 2.0 | 4.0 | 0.00 | 0.47 | 0.47 | 99 | 1008.9 |
| 20260902094136 | 63 | 207 | 2.0 | 4.0 | 0.00 | 0.47 | 0.47 | 99 | 1008.6 |
| 20260902093635 | 63 | 157 | 2.0 | 4.0 | 0.00 | 0.47 | 0.47 | 99 | 1008.6 |
| 20260902093129 | 63 | 92 | 2.0 | 3.0 | 0.00 | 0.47 | 0.47 | 99 | 1008.1 |
| 20260902092624 | 63 | 132 | 2.0 | 6.0 | 0.00 | 0.47 | 0.47 | 99 | 1008.5 |
| 20260902092120 | 63 | 176 | 0.0 | 3.0 | 0.00 | 0.47 | 0.47 | 99 | 1008.8 |
| 20260902091615 | 63 | 164 | 3.0 | 4.0 | 0.00 | 0.47 | 0.47 | 99 | 1008.6 |
| 20260902091111 | 63 | 134 | 2.0 | 3.0 | 0.00 | 0.47 | 0.47 | 99 | 1008.5 |
| 20260902090607 | 63 | 184 | 0.0 | 3.0 | 0.00 | 0.47 | 0.47 | 99 | 1008.9 |
| 20260902090105 | 63 | 106 | 2.0 | 3.0 | 0.00 | 0.47 | 0.47 | 99 | 1008.7 |
| 20260902085600 | 63 | 172 | 2.0 | 4.0 | 0.00 | 0.47 | 0.47 | 99 | 1008.9 |
| 20260902085055 | 63 | 130 | 1.0 | 4.0 | 0.00 | 0.47 | 0.47 | 99 | 1008.9 |
| 20260902084551 | 63 | 136 | 3.0 | 4.0 | 0.00 | 0.47 | 0.47 | 99 | 1009.0 |
| 20260902084047 | 63 | 157 | 2.0 | 3.0 | 0.00 | 0.47 | 0.47 | 99 | 1008.9 |
| 20260902083536 | 63 | 161 | 2.0 | 5.0 | 0.00 | 0.47 | 0.47 | 99 | 1009.1 |
| 20260902083036 | 63 | 351 | 0.0 | 7.0 | 0.00 | 0.47 | 0.47 | 99 | 1008.8 |
| 20260902082532 | 63 | 197 | 2.0 | 4.0 | 0.00 | 0.47 | 0.47 | 99 | 1009.2 |
| 20260902082028 | 62 | 175 | 3.0 | 4.0 | 0.00 | 0.47 | 0.47 | 99 | 1008.8 |
| 20260902081525 | 63 | 71 | 4.0 | 8.0 | 0.00 | 0.47 | 0.47 | 99 | 1008.8 |
| 20260902081024 | 63 | 101 | 2.0 | 5.0 | 0.00 | 0.47 | 0.47 | 99 | 1008.9 |
| 20260902080520 | 63 | 69 | 3.0 | 4.0 | 0.00 | 0.47 | 0.47 | 99 | 1009.0 |
| 20260902080016 | 63 | 38 | 2.0 | 7.0 | 0.00 | 0.47 | 0.47 | 99 | 1008.9 |
| 20260902075511 | 63 | 33 | 3.0 | 6.0 | 0.00 | 0.47 | 0.47 | 99 | 1008.8 |
| 20260902075007 | 63 | 63 | 3.0 | 9.0 | 0.02 | 0.47 | 0.47 | 99 | 1009.0 |
| 20260902074502 | 63 | 57 | 7.0 | 15.0 | 0.02 | 0.47 | 0.47 | 99 | 1008.8 |
| 20260902074001 | 63 | 63 | 12.0 | 13.0 | 0.00 | 0.47 | 0.47 | 99 | 1009.0 |
| 20260902073458 | 64 | 39 | 5.0 | 24.0 | 0.00 | 0.47 | 0.47 | 99 | 1009.0 |
| 20260902072954 | 64 | 27 | 11.0 | 23.0 | 0.00 | 0.47 | 0.47 | 99 | 1008.8 |
| 20260902072449 | 65 | 40 | 12.0 | 22.0 | 0.09 | 0.47 | 0.47 | 99 | 1009.0 |
| 20260902071945 | 66 | 34 | 3.0 | 16.0 | 0.09 | 0.47 | 0.47 | 99 | 1010.4 |
| 20260902071445 | 66 | 14 | 6.0 | 17.0 | 0.61 | 0.45 | 0.45 | 99 | 1011.3 |
| 20260902070942 | 66 | 359 | 6.0 | 19.0 | 1.44 | 0.35 | 0.35 | 99 | 1012.0 |
| 20260902070437 | 66 | 22 | 5.0 | 22.0 | 1.98 | 0.35 | 0.35 | 99 | 1012.4 |
| 20260902065936 | 69 | 164 | 4.0 | 18.0 | 0.54 | 0.11 | 0.11 | 97 | 1012.8 |
| 20260902065431 | 70 | 191 | 4.0 | 10.0 | 0.00 | 0.02 | 0.02 | 95 | 1010.8 |
| 20260902064926 | 70 | 27 | 10.0 | 13.0 | 0.00 | 0.02 | 0.02 | 94 | 1006.4 |
| 20260902064421 | 71 | 37 | 4.0 | 10.0 | 0.00 | 0.02 | 0.02 | 95 | 1006.5 |
| 20260902063917 | 71 | 79 | 5.0 | 9.0 | 0.02 | 0.02 | 0.02 | 95 | 1007.3 |
| 20260902063416 | 70 | 24 | 2.0 | 6.0 | 0.07 | 0.02 | 0.02 | 96 | 1007.9 |
| 20260902062912 | 71 | 29 | 2.0 | 9.0 | 0.05 | 0.02 | 0.02 | 94 | 1008.3 |
| 20260902062411 | 71 | 162 | 2.0 | 4.0 | 0.02 | 0.01 | 0.01 | 95 | 1007.9 |
| 20260902061910 | 71 | 145 | 3.0 | 5.0 | 0.02 | 0.01 | 0.01 | 95 | 1007.5 |
| 20260902061406 | 71 | 95 | 3.0 | 6.0 | 0.00 | 0.00 | 0.00 | 95 | 1007.8 |
| 20260902060902 | 71 | 356 | 3.0 | 6.0 | 0.00 | 0.00 | 0.00 | 95 | 1008.2 |
| 20260902060358 | 72 | 336 | 2.0 | 6.0 | 0.00 | 0.00 | 0.00 | 93 | 1008.0 |
| 20260902055854 | 72 | 15 | 0.0 | 2.0 | 0.00 | 0.00 | 0.00 | 92 | 1008.0 |
| 20260902055349 | 72 | 14 | 0.0 | 2.0 | 0.00 | 0.00 | 0.00 | 93 | 1007.6 |
| 20260902054845 | 72 | 81 | 0.0 | 3.0 | 0.00 | 0.00 | 0.00 | 93 | 1007.7 |
| 20260902054340 | 72 | 356 | 1.0 | 3.0 | 0.00 | 0.00 | 0.00 | 93 | 1007.6 |
| 20260902053835 | 72 | 173 | 0.0 | 2.0 | 0.00 | 0.00 | 0.00 | 92 | 1007.6 |
| 20260902053330 | 72 | 63 | 0.0 | 3.0 | 0.00 | 0.00 | 0.00 | 92 | 1007.9 |
| 20260902052829 | 72 | 27 | 2.0 | 3.0 | 0.00 | 0.00 | 0.00 | 92 | 1008.2 |
| 20260902052326 | 72 | 105 | 2.0 | 4.0 | 0.00 | 0.00 | 0.00 | 92 | 1008.3 |
| 20260902051826 | 72 | 155 | 0.0 | 2.0 | 0.02 | 0.00 | 0.00 | 92 | 1008.8 |
| 20260902051320 | 73 | 269 | 0.0 | 3.0 | 0.02 | 0.00 | 0.00 | 91 | 1009.0 |
| 20260902050820 | 73 | 162 | 2.0 | 3.0 | 0.00 | 0.00 | 0.00 | 90 | 1008.8 |
| 20260902050319 | 73 | 179 | 0.0 | 2.0 | 0.00 | 0.00 | 0.00 | 90 | 1009.0 |
| 20260902045815 | 73 | 164 | 1.0 | 3.0 | 0.00 | 0.00 | 0.00 | 90 | 1008.6 |
| 20260902045310 | 72 | 35 | 1.0 | 1.0 | 0.00 | 0.00 | 0.00 | 90 | 1008.6 |
| 20260902044807 | 73 | 42 | 1.0 | 2.0 | 0.00 | 0.00 | 0.00 | 90 | 1008.6 |
| 20260902044302 | 73 | 76 | 0.0 | 3.0 | 0.00 | 0.00 | 0.00 | 90 | 1008.9 |
| 20260902043756 | 73 | 200 | 3.0 | 9.0 | 0.00 | 0.00 | 0.00 | 89 | 1009.3 |
| 20260902043252 | 73 | 191 | 2.0 | 3.0 | 0.00 | 0.00 | 0.00 | 89 | 1009.0 |
| 20260902042751 | 73 | 223 | 3.0 | 3.0 | 0.00 | 0.00 | 0.00 | 91 | 1008.6 |
| 20260902042246 | 72 | 48 | 0.0 | 2.0 | 0.00 | 0.00 | 0.00 | 92 | 1008.5 |
| 20260902041742 | 72 | 18 | 2.0 | 3.0 | 0.00 | 0.00 | 0.00 | 92 | 1008.2 |
| 20260902041236 | 72 | 6 | 1.0 | 2.0 | 0.00 | 0.00 | 0.00 | 92 | 1008.1 |
| 20260902040735 | 72 | 58 | 0.0 | 2.0 | 0.00 | 0.00 | 0.00 | 92 | 1008.3 |
| 20260902040231 | 73 | 53 | 0.0 | 2.0 | 0.00 | 0.00 | 0.00 | 92 | 1008.5 |
| 20260902035729 | 73 | 107 | 1.0 | 2.0 | 0.00 | 0.00 | 0.00 | 92 | 1008.6 |
| 20260902035225 | 72 | 59 | 0.0 | 3.0 | 0.00 | 0.00 | 0.00 | 93 | 1008.6 |
| 20260902034723 | 72 | 31 | 0.0 | 2.0 | 0.00 | 0.00 | 0.00 | 93 | 1008.8 |
| 20260902034218 | 72 | 47 | 0.0 | 2.0 | 0.00 | 0.00 | 0.00 | 92 | 1009.3 |
| 20260902033717 | 73 | 105 | 0.0 | 1.0 | 0.00 | 0.00 | 0.00 | 92 | 1009.2 |
| 20260902033212 | 73 | 212 | 0.0 | 1.0 | 0.00 | 0.00 | 0.00 | 92 | 1009.0 |
| 20260902032710 | 73 | 215 | 1.0 | 2.0 | 0.00 | 0.00 | 0.00 | 93 | 1009.1 |
| 20260902032206 | 73 | 231 | 1.0 | 2.0 | 0.00 | 0.00 | 0.00 | 92 | 1008.9 |
| 20260902031706 | 73 | 316 | 0.0 | 2.0 | 0.00 | 0.00 | 0.00 | 92 | 1008.9 |
| 20260902031201 | 73 | 0 | 1.0 | 2.0 | 0.00 | 0.00 | 0.00 | 92 | 1008.9 |
| 20260902030656 | 73 | 352 | 0.0 | 1.0 | 0.00 | 0.00 | 0.00 | 91 | 1009.0 |
| 20260902030156 | 73 | 309 | 0.0 | 1.0 | 0.00 | 0.00 | 0.00 | 91 | 1009.2 |
| 20260902025650 | 73 | 217 | 0.0 | 1.0 | 0.00 | 0.00 | 0.00 | 91 | 1008.9 |
| 20260902025146 | 73 | 326 | 0.0 | 1.0 | 0.00 | 0.00 | 0.00 | 90 | 1009.1 |
| 20260902024641 | 74 | 304 | 0.0 | 1.0 | 0.00 | 0.00 | 0.00 | 90 | 1009.1 |
| 20260902024136 | 74 | 49 | 0.0 | 1.0 | 0.00 | 0.00 | 0.00 | 90 | 1009.1 |
| 20260902023632 | 74 | 127 | 0.0 | 1.0 | 0.00 | 0.00 | 0.00 | 89 | 1009.0 |
| 20260902023132 | 74 | 117 | 0.0 | 1.0 | 0.00 | 0.00 | 0.00 | 89 | 1009.1 |
| 20260902022631 | 74 | 320 | 0.0 | 2.0 | 0.00 | 0.00 | 0.00 | 89 | 1008.9 |
| 20260902022127 | 74 | 148 | 0.0 | 2.0 | 0.00 | 0.00 | 0.00 | 89 | 1009.0 |
| 20260902021622 | 74 | 132 | 0.0 | 1.0 | 0.00 | 0.00 | 0.00 | 88 | 1008.8 |
| 20260902021117 | 74 | 135 | 0.0 | 1.0 | 0.00 | 0.00 | 0.00 | 88 | 1009.0 |
| 20260902020613 | 74 | 147 | 0.0 | 1.0 | 0.00 | 0.00 | 0.00 | 87 | 1009.2 |
| 20260902020109 | 75 | 217 | 0.0 | 1.0 | 0.00 | 0.00 | 0.00 | 87 | 1009.2 |
| 20260902015604 | 75 | 212 | 0.0 | 1.0 | 0.00 | 0.00 | 0.00 | 87 | 1009.0 |
| 20260902015100 | 75 | 50 | 0.0 | 0.0 | 0.00 | 0.00 | 0.00 | 87 | 1008.9 |
| 20260902014556 | 76 | 142 | 0.0 | 1.0 | 0.00 | 0.00 | 0.00 | 86 | 1009.0 |
| 20260902014051 | 76 | 235 | 0.0 | 2.0 | 0.00 | 0.00 | 0.00 | 85 | 1008.9 |
| 20260902013550 | 76 | 55 | 0.0 | 1.0 | 0.00 | 0.00 | 0.00 | 84 | 1008.8 |
| 20260902013046 | 77 | 217 | 0.0 | 1.0 | 0.00 | 0.00 | 0.00 | 84 | 1009.0 |
| 20260902012541 | 77 | 218 | 2.0 | 2.0 | 0.00 | 0.00 | 0.00 | 83 | 1008.9 |
| 20260902012037 | 77 | 215 | 2.0 | 3.0 | 0.00 | 0.00 | 0.00 | 83 | 1009.0 |
| 20260902011532 | 77 | 211 | 2.0 | 3.0 | 0.00 | 0.00 | 0.00 | 82 | 1008.9 |
| 20260902011031 | 76 | 197 | 1.0 | 2.0 | 0.00 | 0.00 | 0.00 | 84 | 1008.6 |
| 20260902010531 | 76 | 153 | 0.0 | 2.0 | 0.00 | 0.00 | 0.00 | 84 | 1009.0 |
| 20260902010027 | 76 | 145 | 0.0 | 1.0 | 0.00 | 0.00 | 0.00 | 85 | 1008.8 |
| 20260902005525 | 76 | 321 | 0.0 | 1.0 | 0.00 | 0.00 | 0.00 | 85 | 1008.9 |
| 20260902005021 | 77 | 98 | 0.0 | 1.0 | 0.00 | 0.00 | 0.00 | 84 | 1008.6 |
| 20260902004520 | 77 | 269 | 0.0 | 2.0 | 0.00 | 0.00 | 0.00 | 83 | 1008.9 |
| 20260902004016 | 77 | 343 | 0.0 | 2.0 | 0.00 | 0.00 | 0.00 | 84 | 1009.0 |
| 20260902003511 | 78 | 44 | 0.0 | 1.0 | 0.00 | 0.00 | 0.00 | 83 | 1008.9 |
| 20260902003006 | 78 | 337 | 0.0 | 2.0 | 0.00 | 0.00 | 0.00 | 81 | 1008.9 |
| 20260902002502 | 79 | 8 | 0.0 | 1.0 | 0.00 | 0.00 | 0.00 | 80 | 1008.6 |
| 20260902001956 | 79 | 326 | 0.0 | 1.0 | 0.00 | 0.00 | 0.00 | 78 | 1008.8 |
| 20260902001451 | 79 | 320 | 0.0 | 1.0 | 0.00 | 0.00 | 0.00 | 78 | 1009.0 |
| 20260902000946 | 80 | 337 | 1.0 | 2.0 | 0.00 | 0.00 | 0.00 | 75 | 1008.9 |
| 20260902000444 | 80 | 166 | 0.0 | 2.0 | 0.00 | 0.00 | 0.00 | 73 | 1008.6 |
| 20260901235936 | 80 | 224 | 0.0 | 2.0 | 0.00 | 0.00 | 0.00 | 72 | 1009.0 |
| 20260901235431 | 80 | 230 | 0.0 | 1.0 | 0.00 | 0.00 | 0.00 | 71 | 1008.8 |
| 20260901234926 | 81 | 221 | 0.0 | 2.0 | 0.00 | 0.00 | 0.00 | 70 | 1008.9 |
| 20260901234419 | 81 | 205 | 1.0 | 3.0 | 0.00 | 0.00 | 0.00 | 70 | 1008.8 |
| 20260901233914 | 81 | 230 | 0.0 | 2.0 | 0.00 | 0.00 | 0.00 | 69 | 1008.9 |
| 20260901233409 | 81 | 210 | 0.0 | 3.0 | 0.00 | 0.00 | 0.00 | 68 | 1008.8 |
| 20260901232906 | 81 | 219 | 1.0 | 3.0 | 0.00 | 0.00 | 0.00 | 68 | 1008.9 |
| 20260901232400 | 81 | 219 | 1.0 | 2.0 | 0.00 | 0.00 | 0.00 | 69 | 1008.8 |
| 20260901231856 | 82 | 208 | 3.0 | 3.0 | 0.00 | 0.00 | 0.00 | 68 | 1008.6 |
| 20260901231352 | 82 | 206 | 1.0 | 3.0 | 0.00 | 0.00 | 0.00 | 67 | 1008.7 |
| 20260901230848 | 82 | 187 | 0.0 | 3.0 | 0.00 | 0.00 | 0.00 | 66 | 1008.5 |
| 20260901230348 | 82 | 162 | 1.0 | 3.0 | 0.00 | 0.00 | 0.00 | 66 | 1008.5 |
| 20260901225843 | 82 | 197 | 0.0 | 2.0 | 0.00 | 0.00 | 0.00 | 65 | 1008.2 |
| 20260901225342 | 82 | 186 | 2.0 | 3.0 | 0.00 | 0.00 | 0.00 | 64 | 1008.6 |
| 20260901224838 | 83 | 253 | 4.0 | 5.0 | 0.00 | 0.00 | 0.00 | 64 | 1009.0 |
| 20260901224334 | 83 | 246 | 1.0 | 3.0 | 0.00 | 0.00 | 0.00 | 65 | 1008.6 |
| 20260901223830 | 82 | 217 | 2.0 | 4.0 | 0.00 | 0.00 | 0.00 | 67 | 1008.8 |
| 20260901223325 | 83 | 222 | 3.0 | 6.0 | 0.00 | 0.00 | 0.00 | 66 | 1008.8 |
| 20260901222821 | 83 | 218 | 3.0 | 4.0 | 0.00 | 0.00 | 0.00 | 65 | 1008.7 |
| 20260901222317 | 83 | 213 | 4.0 | 5.0 | 0.00 | 0.00 | 0.00 | 63 | 1008.9 |
| 20260901221813 | 83 | 208 | 2.0 | 3.0 | 0.00 | 0.00 | 0.00 | 63 | 1009.3 |
| 20260901221309 | 84 | 195 | 0.0 | 2.0 | 0.00 | 0.00 | 0.00 | 61 | 1009.2 |
| 20260901220808 | 84 | 200 | 1.0 | 2.0 | 0.00 | 0.00 | 0.00 | 61 | 1009.1 |
| 20260901220307 | 84 | 212 | 0.0 | 2.0 | 0.00 | 0.00 | 0.00 | 59 | 1008.9 |